EVY23 YMAV-YSSY

Flight info

Callsign EVY23
Flight time 1h 9m
Altitude 37000
Route ML H129 DOSEL Y59 RIVET
Aircraft B38M/M-SADE2E3FGHIJ1J3J4J7M3P2RWXYZ/LB1D1

Departure

Time 2026-04-26 14:23
Airport Melbourne Avalon International Airport (YMAV)

Arrival

Time 2026-04-26 15:32
Airport Sydney Kingsford Smith International Airport (YSSY)
Time Latitude Longitude Altitude Speed Heading
2026-04-26 14:13 -38.03058 144.47326 38 ft 28 kts
2026-04-26 14:13 -38.02953 144.47375 38 ft 14 kts 70°
2026-04-26 14:13 -38.03005 144.47460 38 ft 9 kts 154°
2026-04-26 14:14 -38.03031 144.47485 37 ft 6 kts 125°
2026-04-26 14:14 -38.03029 144.47501 38 ft 1 kts 47°
2026-04-26 14:14 -38.03018 144.47507 38 ft 0 kts 359°
2026-04-26 14:14 -38.03005 144.47504 38 ft 4 kts 350°
2026-04-26 14:15 -38.02993 144.47505 38 ft 0 kts
2026-04-26 14:15 -38.02985 144.47506 38 ft 0 kts
2026-04-26 14:20 -38.02975 144.47508 38 ft 4 kts
2026-04-26 14:20 -38.02945 144.47469 38 ft 10 kts 278°
2026-04-26 14:21 -38.02932 144.47367 38 ft 13 kts 313°
2026-04-26 14:21 -38.02838 144.47355 38 ft 15 kts 356°
2026-04-26 14:21 -38.02790 144.47239 38 ft 17 kts 277°
2026-04-26 14:21 -38.02744 144.47085 37 ft 20 kts 288°
2026-04-26 14:22 -38.02739 144.46945 36 ft 9 kts 230°
2026-04-26 14:22 -38.02789 144.46929 36 ft 9 kts 187°
2026-04-26 14:22 -38.02941 144.46903 36 ft 55 kts 187°
2026-04-26 14:22 -38.03571 144.46796 39 ft 127 kts 187°
2026-04-26 14:23 -38.04622 144.46631 243 ft 164 kts 187°
2026-04-26 14:23 -38.05774 144.46423 993 ft 167 kts 188°
2026-04-26 14:23 -38.06909 144.46241 1886 ft 167 kts 189°
2026-04-26 14:23 -38.08138 144.46218 2346 ft 188 kts 164°
2026-04-26 14:24 -38.09136 144.47339 2723 ft 206 kts 114°
2026-04-26 14:24 -38.09241 144.49214 3230 ft 228 kts 69°
2026-04-26 14:24 -38.08412 144.50562 4331 ft 211 kts 30°
2026-04-26 14:24 -38.07034 144.51135 5409 ft 211 kts 12°
2026-04-26 14:25 -38.05615 144.51694 6402 ft 215 kts 15°
2026-04-26 14:25 -38.04185 144.52318 7322 ft 220 kts 15°
2026-04-26 14:25 -38.02724 144.52973 8186 ft 225 kts 15°
2026-04-26 14:25 -38.01234 144.53649 9070 ft 230 kts 15°
2026-04-26 14:26 -37.99717 144.54345 9952 ft 235 kts 14°
2026-04-26 14:26 -37.98166 144.55062 10763 ft 240 kts 14°
2026-04-26 14:26 -37.96593 144.55791 11640 ft 242 kts 14°
2026-04-26 14:26 -37.95000 144.56531 12538 ft 245 kts 14°
2026-04-26 14:27 -37.93395 144.57350 13329 ft 259 kts 24°
2026-04-26 14:27 -37.91868 144.58762 13877 ft 283 kts 32°
2026-04-26 14:27 -37.90261 144.60358 14357 ft 304 kts 33°
2026-04-26 14:27 -37.88534 144.62065 14778 ft 325 kts 33°
2026-04-26 14:28 -37.86702 144.63876 15256 ft 343 kts 33°
2026-04-26 14:28 -37.84784 144.65769 15857 ft 356 kts 34°
2026-04-26 14:28 -37.82815 144.67710 16679 ft 360 kts 34°
2026-04-26 14:28 -37.80820 144.69673 17475 ft 366 kts 34°
2026-04-26 14:29 -37.78795 144.71665 18259 ft 372 kts 35°
2026-04-26 14:29 -37.76734 144.73690 18955 ft 377 kts 35°
2026-04-26 14:29 -37.74654 144.75731 19633 ft 381 kts 35°
2026-04-26 14:29 -37.72553 144.77793 20301 ft 385 kts 35°
2026-04-26 14:30 -37.70446 144.79859 20950 ft 390 kts 35°
2026-04-26 14:30 -37.68266 144.81994 21619 ft 394 kts 35°
2026-04-26 14:30 -37.66131 144.84121 22267 ft 399 kts 38°
2026-04-26 14:30 -37.64063 144.86491 22914 ft 404 kts 39°
2026-04-26 14:31 -37.61939 144.88908 23568 ft 408 kts 39°
2026-04-26 14:31 -37.59846 144.91270 24110 ft 412 kts 39°
2026-04-26 14:31 -37.57698 144.93684 24635 ft 416 kts 39°
2026-04-26 14:31 -37.55526 144.96121 25156 ft 419 kts 39°
2026-04-26 14:32 -37.53339 144.98571 25660 ft 423 kts 39°
2026-04-26 14:32 -37.51127 145.01047 26163 ft 427 kts 39°
2026-04-26 14:32 -37.48897 145.03541 26658 ft 430 kts 39°
2026-04-26 14:32 -37.46649 145.06052 27143 ft 434 kts 39°
2026-04-26 14:33 -37.44387 145.08578 27618 ft 437 kts 39°
2026-04-26 14:33 -37.42103 145.11127 28096 ft 441 kts 39°
2026-04-26 14:33 -37.39797 145.13696 28573 ft 444 kts 39°
2026-04-26 14:33 -37.37477 145.16280 29039 ft 447 kts 39°
2026-04-26 14:34 -37.35136 145.18884 29485 ft 451 kts 40°
2026-04-26 14:34 -37.32783 145.21500 29941 ft 454 kts 40°
2026-04-26 14:34 -37.30402 145.24144 30365 ft 457 kts 40°
2026-04-26 14:34 -37.28017 145.26791 30736 ft 460 kts 40°
2026-04-26 14:35 -37.25615 145.29454 31136 ft 462 kts 39°
2026-04-26 14:35 -37.23204 145.32124 31528 ft 464 kts 39°
2026-04-26 14:35 -37.20774 145.34815 31915 ft 466 kts 39°
2026-04-26 14:35 -37.18340 145.37507 32284 ft 468 kts 39°
2026-04-26 14:36 -37.16032 145.40404 32631 ft 473 kts 51°
2026-04-26 14:36 -37.14123 145.43781 33022 ft 475 kts 53°
2026-04-26 14:36 -37.12169 145.47142 33328 ft 479 kts 52°
2026-04-26 14:36 -37.10217 145.50521 33685 ft 481 kts 53°
2026-04-26 14:37 -37.08258 145.53926 34090 ft 482 kts 53°
2026-04-26 14:37 -37.06300 145.57331 34520 ft 482 kts 53°
2026-04-26 14:37 -37.04338 145.60740 34913 ft 482 kts 53°
2026-04-26 14:37 -37.02407 145.64093 35286 ft 482 kts 53°
2026-04-26 14:38 -37.00445 145.67495 35665 ft 482 kts 53°
2026-04-26 14:38 -36.98488 145.70886 36035 ft 481 kts 53°
2026-04-26 14:38 -36.96524 145.74284 36401 ft 481 kts 53°
2026-04-26 14:38 -36.94563 145.77674 36771 ft 481 kts 53°
2026-04-26 14:39 -36.92601 145.81063 37135 ft 481 kts 53°
2026-04-26 14:39 -36.90637 145.84451 37263 ft 482 kts 53°
2026-04-26 14:39 -36.88677 145.87829 37249 ft 479 kts 53°
2026-04-26 14:40 -36.84779 145.94537 37237 ft 477 kts 53°
2026-04-26 14:40 -36.80872 146.01249 37241 ft 477 kts 53°
2026-04-26 14:41 -36.76971 146.07936 37248 ft 476 kts 53°
2026-04-26 14:41 -36.73066 146.14618 37247 ft 476 kts 53°
2026-04-26 14:42 -36.69167 146.21274 37251 ft 475 kts 53°
2026-04-26 14:42 -36.65265 146.27924 37248 ft 475 kts 53°
2026-04-26 14:43 -36.61362 146.34562 37257 ft 475 kts 53°
2026-04-26 14:43 -36.57462 146.41182 37257 ft 474 kts 53°
2026-04-26 14:44 -36.53560 146.47794 37259 ft 473 kts 53°
2026-04-26 14:44 -36.49663 146.54384 37260 ft 473 kts 53°
2026-04-26 14:45 -36.45768 146.60957 37263 ft 472 kts 53°
2026-04-26 14:45 -36.41870 146.67523 37255 ft 472 kts 53°
2026-04-26 14:46 -36.37975 146.74072 37258 ft 471 kts 53°
2026-04-26 14:46 -36.34080 146.80607 37259 ft 471 kts 53°
2026-04-26 14:47 -36.30203 146.87100 37263 ft 471 kts 53°
2026-04-26 14:47 -36.26305 146.93617 37266 ft 470 kts 53°
2026-04-26 14:48 -36.22404 147.00128 37270 ft 470 kts 53°
2026-04-26 14:48 -36.18504 147.06625 37263 ft 470 kts 53°
2026-04-26 14:49 -36.14607 147.13096 37278 ft 469 kts 53°
2026-04-26 14:49 -36.10705 147.19569 37272 ft 469 kts 53°
2026-04-26 14:50 -36.06804 147.26026 37276 ft 469 kts 53°
2026-04-26 14:50 -36.02899 147.32478 37289 ft 468 kts 53°
2026-04-26 14:51 -35.98988 147.38929 37290 ft 468 kts 53°
2026-04-26 14:51 -35.95081 147.45362 37294 ft 469 kts 53°
2026-04-26 14:52 -35.91168 147.51792 37299 ft 469 kts 53°
2026-04-26 14:52 -35.87256 147.58209 37295 ft 469 kts 53°
2026-04-26 14:53 -35.83330 147.64636 37296 ft 469 kts 53°
2026-04-26 14:53 -35.79428 147.71012 37303 ft 469 kts 53°
2026-04-26 14:54 -35.75494 147.77428 37305 ft 469 kts 53°
2026-04-26 14:54 -35.71561 147.83831 37307 ft 469 kts 53°
2026-04-26 14:55 -35.67619 147.90236 37307 ft 469 kts 53°
2026-04-26 14:55 -35.63680 147.96627 37305 ft 469 kts 53°
2026-04-26 14:56 -35.59730 148.03022 37316 ft 469 kts 53°
2026-04-26 14:56 -35.55781 148.09402 37314 ft 469 kts 53°
2026-04-26 14:57 -35.51829 148.15778 37316 ft 469 kts 53°
2026-04-26 14:57 -35.47868 148.22157 37325 ft 469 kts 53°
2026-04-26 14:58 -35.43911 148.28518 37320 ft 469 kts 53°
2026-04-26 14:58 -35.39945 148.34877 37325 ft 469 kts 53°
2026-04-26 14:59 -35.35980 148.41225 37318 ft 469 kts 53°
2026-04-26 14:59 -35.32007 148.47576 37331 ft 469 kts 53°
2026-04-26 15:00 -35.28032 148.53917 37333 ft 470 kts 53°
2026-04-26 15:00 -35.24070 148.60227 37328 ft 470 kts 53°
2026-04-26 15:01 -35.20089 148.66554 37328 ft 470 kts 53°
2026-04-26 15:01 -35.16100 148.72884 37336 ft 470 kts 53°
2026-04-26 15:02 -35.12107 148.79209 37333 ft 469 kts 53°
2026-04-26 15:02 -35.08114 148.85522 37320 ft 469 kts 53°
2026-04-26 15:03 -35.04122 148.91822 37320 ft 469 kts 53°
2026-04-26 15:03 -35.00128 148.98114 37312 ft 469 kts 53°
2026-04-26 15:04 -34.96127 149.04405 37311 ft 469 kts 53°
2026-04-26 15:04 -34.92807 149.09617 37307 ft 469 kts 53°
2026-04-26 15:05 -34.88809 149.15884 37306 ft 468 kts 52°
2026-04-26 15:05 -34.84819 149.22128 37003 ft 464 kts 52°
2026-04-26 15:05 -34.82151 149.26297 35391 ft 477 kts 53°
2026-04-26 15:06 -34.80781 149.28436 34874 ft 470 kts 53°
2026-04-26 15:06 -34.78786 149.31548 33785 ft 467 kts 53°
2026-04-26 15:06 -34.76787 149.34665 32657 ft 465 kts 53°
2026-04-26 15:06 -34.74803 149.37756 32105 ft 460 kts 53°
2026-04-26 15:07 -34.71672 149.44362 31093 ft 447 kts 63°
2026-04-26 15:07 -34.70220 149.47687 30529 ft 443 kts 63°
2026-04-26 15:07 -34.68779 149.50988 29861 ft 441 kts 63°
2026-04-26 15:08 -34.67350 149.54262 29243 ft 437 kts 63°
2026-04-26 15:08 -34.65933 149.57502 28681 ft 432 kts 63°
2026-04-26 15:08 -34.64528 149.60716 28124 ft 428 kts 63°
2026-04-26 15:08 -34.63140 149.63887 27569 ft 424 kts 63°
2026-04-26 15:09 -34.61759 149.67040 27021 ft 421 kts 62°
2026-04-26 15:09 -34.60404 149.70129 26476 ft 418 kts 62°
2026-04-26 15:09 -34.59042 149.73231 25937 ft 415 kts 62°
2026-04-26 15:09 -34.57690 149.76309 25401 ft 413 kts 62°
2026-04-26 15:10 -34.56340 149.79378 24870 ft 410 kts 62°
2026-04-26 15:10 -34.55432 149.81442 24519 ft 409 kts 62°
2026-04-26 15:10 -34.53664 149.85458 23811 ft 406 kts 61°
2026-04-26 15:10 -34.52334 149.88473 23217 ft 404 kts 61°
2026-04-26 15:11 -34.51017 149.91461 22690 ft 400 kts 61°
2026-04-26 15:11 -34.49707 149.94425 22139 ft 398 kts 61°
2026-04-26 15:11 -34.48407 149.97366 21675 ft 393 kts 61°
2026-04-26 15:11 -34.47120 150.00273 21231 ft 389 kts 61°
2026-04-26 15:12 -34.46129 150.02510 20874 ft 387 kts 61°
2026-04-26 15:12 -34.44861 150.05374 20411 ft 383 kts 61°
2026-04-26 15:12 -34.43603 150.08209 19956 ft 381 kts 61°
2026-04-26 15:12 -34.42354 150.11024 19512 ft 378 kts 61°
2026-04-26 15:13 -34.41115 150.13813 19065 ft 375 kts 61°
2026-04-26 15:13 -34.39882 150.16586 18634 ft 373 kts 61°
2026-04-26 15:13 -34.38654 150.19346 18158 ft 371 kts 61°
2026-04-26 15:13 -34.37435 150.22082 17706 ft 367 kts 61°
2026-04-26 15:14 -34.36235 150.24776 17283 ft 363 kts 61°
2026-04-26 15:14 -34.35039 150.27457 16867 ft 359 kts 61°
2026-04-26 15:14 -34.33857 150.30105 16447 ft 356 kts 61°
2026-04-26 15:14 -34.32681 150.32737 16040 ft 353 kts 61°
2026-04-26 15:15 -34.31521 150.35332 15633 ft 351 kts 61°
2026-04-26 15:15 -34.30363 150.37921 15229 ft 348 kts 61°
2026-04-26 15:15 -34.29215 150.40486 14822 ft 346 kts 61°
2026-04-26 15:15 -34.28073 150.43039 14410 ft 345 kts 61°
2026-04-26 15:16 -34.26932 150.45593 13956 ft 344 kts 61°
2026-04-26 15:16 -34.25798 150.48130 13532 ft 342 kts 61°
2026-04-26 15:16 -34.24673 150.50643 13135 ft 338 kts 61°
2026-04-26 15:16 -34.23561 150.53129 12738 ft 336 kts 61°
2026-04-26 15:17 -34.22454 150.55600 12348 ft 333 kts 61°
2026-04-26 15:17 -34.21727 150.57222 12090 ft 331 kts 61°
2026-04-26 15:17 -34.20267 150.60476 11568 ft 328 kts 60°
2026-04-26 15:17 -34.19184 150.62890 11209 ft 325 kts 60°
2026-04-26 15:18 -34.18123 150.65252 11025 ft 316 kts 60°
2026-04-26 15:18 -34.17080 150.67572 10705 ft 312 kts 60°
2026-04-26 15:18 -34.16054 150.69853 10451 ft 307 kts 60°
2026-04-26 15:18 -34.15060 150.72061 10273 ft 299 kts 60°
2026-04-26 15:19 -34.14081 150.74236 10126 ft 290 kts 60°
2026-04-26 15:19 -34.13135 150.76336 9921 ft 284 kts 60°
2026-04-26 15:19 -34.12195 150.78420 9593 ft 282 kts 60°
2026-04-26 15:19 -34.11258 150.80496 9283 ft 281 kts 60°
2026-04-26 15:20 -34.10325 150.82565 8983 ft 279 kts 61°
2026-04-26 15:20 -34.09410 150.84598 8839 ft 272 kts 61°
2026-04-26 15:20 -34.08511 150.86597 8745 ft 273 kts 61°
2026-04-26 15:20 -34.07601 150.88617 8635 ft 273 kts 61°
2026-04-26 15:21 -34.06696 150.90628 8509 ft 272 kts 61°
2026-04-26 15:21 -34.05983 150.92209 8417 ft 272 kts 61°
2026-04-26 15:21 -34.05079 150.94213 8287 ft 272 kts 61°
2026-04-26 15:21 -34.04179 150.96208 8162 ft 271 kts 62°
2026-04-26 15:22 -34.03377 150.98255 8019 ft 270 kts 75°
2026-04-26 15:22 -34.03321 151.00488 7883 ft 268 kts 103°
2026-04-26 15:22 -34.04091 151.02512 7769 ft 267 kts 127°
2026-04-26 15:22 -34.05320 151.04194 7664 ft 268 kts 132°
2026-04-26 15:23 -34.06576 151.05840 7527 ft 267 kts 133°
2026-04-26 15:23 -34.07947 151.07334 7388 ft 265 kts 150°
2026-04-26 15:23 -34.09674 151.08058 7260 ft 264 kts 167°
2026-04-26 15:23 -34.11469 151.08563 7123 ft 265 kts 167°
2026-04-26 15:24 -34.13275 151.09059 6793 ft 268 kts 167°
2026-04-26 15:24 -34.15068 151.09540 6404 ft 261 kts 167°
2026-04-26 15:24 -34.16821 151.10004 6043 ft 254 kts 168°
2026-04-26 15:24 -34.18528 151.10452 5673 ft 248 kts 168°
2026-04-26 15:25 -34.20163 151.10968 5363 ft 238 kts 158°
2026-04-26 15:25 -34.21097 151.11617 5219 ft 230 kts 141°
2026-04-26 15:25 -34.22242 151.13657 4985 ft 214 kts 107°
2026-04-26 15:25 -34.22384 151.15383 4850 ft 203 kts 85°
2026-04-26 15:26 -34.21990 151.16992 4804 ft 200 kts 64°
2026-04-26 15:26 -34.21169 151.18330 4702 ft 199 kts 48°
2026-04-26 15:26 -34.20221 151.19549 4602 ft 198 kts 48°
2026-04-26 15:26 -34.19286 151.20774 4481 ft 198 kts 49°
2026-04-26 15:27 -34.18356 151.22001 4357 ft 197 kts 48°
2026-04-26 15:27 -34.17247 151.22945 4108 ft 199 kts 16°
2026-04-26 15:27 -34.15881 151.23067 3854 ft 198 kts 355°
2026-04-26 15:27 -34.14543 151.22807 3606 ft 197 kts 348°
2026-04-26 15:28 -34.13225 151.22457 3407 ft 188 kts 348°
2026-04-26 15:28 -34.11980 151.22127 3146 ft 181 kts 348°
2026-04-26 15:28 -34.10737 151.21801 2907 ft 183 kts 348°
2026-04-26 15:28 -34.09498 151.21477 2664 ft 182 kts 348°
2026-04-26 15:29 -34.08265 151.21153 2417 ft 179 kts 348°
2026-04-26 15:29 -34.07110 151.20851 2194 ft 159 kts 348°
2026-04-26 15:29 -34.05148 151.20338 1796 ft 138 kts 348°
2026-04-26 15:30 -34.03281 151.19854 1470 ft 138 kts 348°
2026-04-26 15:30 -34.02342 151.19603 1274 ft 138 kts 348°
2026-04-26 15:30 -34.01408 151.19363 1050 ft 137 kts 347°
2026-04-26 15:31 -34.00474 151.19121 882 ft 138 kts 347°
2026-04-26 15:31 -33.98595 151.18638 486 ft 137 kts 347°
2026-04-26 15:31 -33.97653 151.18390 304 ft 140 kts 347°
2026-04-26 15:32 -33.96078 151.17977 45 ft 137 kts 347°
2026-04-26 15:32 -33.95045 151.17706 30 ft 84 kts 348°
2026-04-26 15:32 -33.94651 151.17647 31 ft 39 kts
2026-04-26 15:33 -33.94456 151.17706 32 ft 29 kts 18°
2026-04-26 15:33 -33.94259 151.17715 32 ft 30 kts 349°
2026-04-26 15:33 -33.94046 151.17649 31 ft 33 kts 347°
2026-04-26 15:33 -33.93886 151.17636 32 ft 18 kts 43°
2026-04-26 15:34 -33.93838 151.17782 32 ft 20 kts 75°
2026-04-26 15:34 -33.93798 151.17960 33 ft 24 kts 75°
2026-04-26 15:34 -33.93750 151.18163 33 ft 27 kts 74°
2026-04-26 15:34 -33.93695 151.18389 33 ft 30 kts 73°
2026-04-26 15:35 -33.93636 151.18637 32 ft 30 kts 75°
2026-04-26 15:35 -33.93594 151.18837 32 ft 19 kts 90°
2026-04-26 15:35 -33.93594 151.18942 32 ft 8 kts 76°
2026-04-26 15:35 -33.93561 151.18967 32 ft 7 kts
2026-04-26 15:36 -33.93527 151.18958 32 ft 3 kts 344°
2026-04-26 15:36 -33.93521 151.18956 32 ft 0 kts 344°